Airfield :
LOGIN :

Register | Disclaimer

   EN    FR    IT 

 










Legend :    VFR   Marginal VFR   IFR   Intensive IFR   Very Intensive IFR
Visi :
Ceiling :
>= 8 km
>= 3000ft
5 to 8 km
1000 to 3000 ft
1500m to 5 km
500 to 1000 ft
800 to 1500m
200 to 500 ft
< 800m
< 200 ft
Symbols :   Thunderstorms  Fog  Heavy snow  Heavy precipitations  Wind > 20 kt
SIGMETs :     Misc.  Thunderstorms  Icing  Turbulence  Mountain Waves  Volcanic Ashes






- Airport Elevation : 302 ft


LFPM - Melun Villaroche

CURRENT METAR :
  • 090730Z AUTO 22008KT CAVOK 00/M00 Q1008

EXPIRED METARs :
  • 090700Z AUTO 22009KT CAVOK 01/00 Q1008
  • 090630Z AUTO 22010KT CAVOK 01/00 Q1007
  • 090600Z AUTO 21009KT CAVOK 01/00 Q1007
  • 090530Z AUTO 21008KT CAVOK 00/00 Q1007
  • 090500Z AUTO 22008KT CAVOK 00/M00 Q1007
  • 090430Z AUTO 23005KT CAVOK M00/M01 Q1007

Expired Forecast.
ATIS : +33 1 64 14 28 44



MET'MAP, your aeronautical weather chart ! - Copyright ORBIFLY December 2007 - Disclaimer

ORBIFLY MET'MAP TEAM :

Programming & Development : Alexandra Zaïnal
Concept & original design : Baudouin d'Aumeries
Assistance for programming : Marc-Olivier Méhu
Technical & hardware support : Manuel Goepfert

Contact : metmap@orbifly.com




SOURCES & CREDITS :

   NOAA